This is the latest recevied weather packets stored in our database for station/object EA2FBA-10. If no packets are shown the sender has not sent any weather packets the latest 10 day(s).
| Time | Temp. | Humidity | Pressure | Rain* | Wind** | Luminosity | Snow |
|---|---|---|---|---|---|---|---|
| 1787574257 | 26.67° C | 28% | 948.2 hPa | - | - | - | - |
| 1787573366 | 27.22° C | 28% | 948.2 hPa | - | - | - | - |
| 1787573356 | 27.22° C | 28% | 948.2 hPa | - | - | - | - |
| 1787572466 | 26.67° C | 33% | 948.3 hPa | - | - | - | - |
| 1787572456 | 26.67° C | 33% | 948.3 hPa | - | - | - | - |
| 1787571566 | 26.67° C | 30% | 948.6 hPa | - | - | - | - |
| 1787571556 | 26.67° C | 30% | 948.6 hPa | - | - | - | - |
| 1787570666 | 26.11° C | 35% | 948.6 hPa | - | - | - | - |
| 1787570656 | 26.11° C | 35% | 948.6 hPa | - | - | - | - |
| 1787569765 | 27.22° C | 32% | 948.7 hPa | - | - | - | - |
| 1787569756 | 27.22° C | 32% | 948.7 hPa | - | - | - | - |
| 1787568865 | 26.67° C | 36% | 948.7 hPa | - | - | - | - |
| 1787568856 | 26.67° C | 36% | 948.7 hPa | - | - | - | - |
| 1787567965 | 26.11° C | 33% | 949 hPa | - | - | - | - |
| 1787567956 | 26.11° C | 33% | 949 hPa | - | - | - | - |
| 1787567065 | 25.56° C | 39% | 949 hPa | - | - | - | - |
| 1787567056 | 25.56° C | 39% | 949 hPa | - | - | - | - |
| 1787566165 | 25.56° C | 41% | 949.4 hPa | - | - | - | - |
| 1787566156 | 25.56° C | 41% | 949.4 hPa | - | - | - | - |
| 1787565265 | 25° C | 40% | 949.5 hPa | - | - | - | - |
| 1787565256 | 25° C | 40% | 949.5 hPa | - | - | - | - |
| 1787564365 | 25° C | 41% | 949.3 hPa | - | - | - | - |
| 1787564355 | 25° C | 41% | 949.3 hPa | - | - | - | - |
| 1787563465 | 25° C | 49% | 949 hPa | - | - | - | - |
| 1787563455 | 25° C | 49% | 949 hPa | - | - | - | - |
* Rain since midnight (hover to see other rain measurements)
** Current wind speed in m/s (hover to see current wind gust speed)